Time,TemperatureF,DewpointF,PressureIn,WindDirection,WindDirectionDegrees,WindSpeedMPH,WindSpeedGustMPH,Humidity,HourlyPrecipIn,Conditions,Clouds,dailyrainin,SolarRadiationWatts/m^2,SoftwareType,DateUTC
2013-04-25 00:01:00,53.0,15.0,-100.00,NW,311,5.0,7.0,22,-99.99,,,0.00,0.000000,,2013-04-25 07:01:00,
2013-04-25 00:11:00,53.0,15.0,-100.00,NW,311,5.0,7.0,22,-99.99,,,0.00,0.000000,,2013-04-25 07:11:00,
2013-04-25 00:21:00,53.0,15.0,-100.00,NW,311,5.0,7.0,22,-99.99,,,0.00,0.000000,,2013-04-25 07:21:00,
2013-04-25 00:52:00,50.0,16.0,-100.00,West,281,3.0,7.0,25,-99.99,,,0.00,0.000000,,2013-04-25 07:52:00,
2013-04-25 01:01:00,50.0,16.0,-100.00,West,281,3.0,7.0,25,-99.99,,,0.00,0.000000,,2013-04-25 08:01:00,
2013-04-25 01:11:00,50.0,16.0,-100.00,West,281,3.0,7.0,25,-99.99,,,0.00,0.000000,,2013-04-25 08:11:00,
2013-04-25 01:21:00,50.0,16.0,-100.00,West,281,3.0,7.0,25,-99.99,,,0.00,0.000000,,2013-04-25 08:21:00,
2013-04-25 01:31:00,50.0,16.0,-100.00,West,281,3.0,7.0,25,-99.99,,,0.00,0.000000,,2013-04-25 08:31:00,
2013-04-25 01:52:00,51.0,23.0,-100.00,WNW,295,6.0,9.0,33,0.00,,,0.00,0.000000,,2013-04-25 08:52:00,
2013-04-25 02:01:00,51.0,23.0,-100.00,WNW,295,6.0,9.0,33,0.00,,,0.00,0.000000,,2013-04-25 09:01:00,
2013-04-25 02:11:00,51.0,23.0,-100.00,WNW,295,6.0,9.0,33,0.00,,,0.00,0.000000,,2013-04-25 09:11:00,
2013-04-25 02:21:00,51.0,23.0,-100.00,WNW,295,6.0,9.0,33,0.00,,,0.00,0.000000,,2013-04-25 09:21:00,
2013-04-25 02:32:00,51.0,23.0,-100.00,WNW,295,6.0,9.0,33,0.00,,,0.00,0.000000,,2013-04-25 09:32:00,
2013-04-25 02:52:00,49.0,21.0,-100.00,West,278,6.0,9.0,33,0.00,,,0.00,0.000000,,2013-04-25 09:52:00,
2013-04-25 03:02:00,49.0,21.0,-100.00,West,278,6.0,9.0,33,0.00,,,0.00,0.000000,,2013-04-25 10:02:00,
2013-04-25 03:12:00,49.0,21.0,-100.00,West,278,6.0,9.0,33,0.00,,,0.00,0.000000,,2013-04-25 10:12:00,
2013-04-25 03:22:00,49.0,21.0,-100.00,West,278,6.0,9.0,33,0.00,,,0.00,0.000000,,2013-04-25 10:22:00,
2013-04-25 03:32:00,49.0,21.0,-100.00,West,278,6.0,9.0,33,0.00,,,0.00,0.000000,,2013-04-25 10:32:00,
2013-04-25 03:53:00,49.0,21.0,-100.00,WNW,288,8.0,12.0,33,-99.99,,,-99.99,0.000000,,2013-04-25 10:53:00,
2013-04-25 04:02:00,49.0,21.0,-100.00,WNW,288,8.0,12.0,33,-99.99,,,-99.99,0.000000,,2013-04-25 11:02:00,
2013-04-25 04:12:00,49.0,21.0,-100.00,WNW,288,8.0,12.0,33,-99.99,,,-99.99,0.000000,,2013-04-25 11:12:00,
2013-04-25 04:22:00,49.0,21.0,-100.00,WNW,288,8.0,12.0,33,-99.99,,,-99.99,0.000000,,2013-04-25 11:22:00,
2013-04-25 04:32:00,49.0,21.0,-100.00,WNW,288,8.0,12.0,33,-99.99,,,-99.99,0.000000,,2013-04-25 11:32:00,
2013-04-25 04:52:00,50.0,9.0,-100.00,NW,314,9.0,13.0,19,-99.99,,,0.00,0.000000,,2013-04-25 11:52:00,
2013-04-25 05:01:00,50.0,9.0,-100.00,NW,314,9.0,13.0,19,-99.99,,,0.00,0.000000,,2013-04-25 12:01:00,
2013-04-25 05:52:00,49.0,15.0,-100.00,NW,305,9.0,12.0,25,-99.99,,,0.00,0.000000,,2013-04-25 12:52:00,
2013-04-25 06:02:00,49.0,15.0,-100.00,NW,305,9.0,12.0,25,-99.99,,,0.00,0.000000,,2013-04-25 13:02:00,
2013-04-25 06:11:00,49.0,15.0,-100.00,NW,305,9.0,12.0,25,-99.99,,,0.00,0.000000,,2013-04-25 13:11:00,
2013-04-25 06:21:00,49.0,15.0,-100.00,NW,305,9.0,12.0,25,-99.99,,,0.00,0.000000,,2013-04-25 13:21:00,
2013-04-25 06:31:00,49.0,15.0,-100.00,NW,305,9.0,12.0,25,-99.99,,,0.00,0.000000,,2013-04-25 13:31:00,
2013-04-25 06:52:00,49.0,21.0,-100.00,WNW,300,7.0,13.0,33,0.00,,,-99.99,6.000000,,2013-04-25 13:52:00,
2013-04-25 07:01:00,49.0,21.0,-100.00,WNW,300,7.0,13.0,33,0.00,,,-99.99,6.000000,,2013-04-25 14:01:00,
2013-04-25 07:11:00,49.0,21.0,-100.00,WNW,300,7.0,13.0,33,0.00,,,-99.99,6.000000,,2013-04-25 14:11:00,
2013-04-25 07:21:00,49.0,21.0,-100.00,WNW,300,7.0,13.0,33,0.00,,,-99.99,6.000000,,2013-04-25 14:21:00,
2013-04-25 07:32:00,49.0,21.0,-100.00,WNW,300,7.0,13.0,33,0.00,,,-99.99,6.000000,,2013-04-25 14:32:00,
2013-04-25 07:52:00,51.0,24.0,-100.00,NW,317,4.0,10.0,34,-99.99,,,0.00,48.000000,,2013-04-25 14:52:00,
2013-04-25 08:02:00,51.0,24.0,-100.00,NW,317,4.0,10.0,34,-99.99,,,0.00,48.000000,,2013-04-25 15:02:00,
2013-04-25 08:53:00,52.0,26.0,-100.00,WNW,292,5.0,9.0,36,-99.99,,,0.00,173.000000,,2013-04-25 15:53:00,
2013-04-25 09:02:00,52.0,26.0,-100.00,WNW,292,5.0,9.0,36,-99.99,,,0.00,173.000000,,2013-04-25 16:02:00,
2013-04-25 09:13:00,52.0,26.0,-100.00,WNW,292,5.0,9.0,36,-99.99,,,0.00,173.000000,,2013-04-25 16:13:00,
2013-04-25 09:24:00,52.0,26.0,-100.00,WNW,292,5.0,9.0,36,-99.99,,,0.00,173.000000,,2013-04-25 16:24:00,
2013-04-25 09:32:00,52.0,26.0,-100.00,WNW,292,5.0,9.0,36,-99.99,,,0.00,173.000000,,2013-04-25 16:32:00,
2013-04-25 09:52:00,56.0,26.0,-100.00,WNW,293,6.0,11.0,31,0.00,,,-99.99,474.000000,,2013-04-25 16:52:00,
2013-04-25 10:02:00,56.0,26.0,-100.00,WNW,293,6.0,11.0,31,0.00,,,-99.99,474.000000,,2013-04-25 17:02:00,
2013-04-25 10:11:00,56.0,26.0,-100.00,WNW,293,6.0,11.0,31,0.00,,,-99.99,474.000000,,2013-04-25 17:11:00,
2013-04-25 10:22:00,56.0,26.0,-100.00,WNW,293,6.0,11.0,31,0.00,,,-99.99,474.000000,,2013-04-25 17:22:00,
2013-04-25 10:31:00,56.0,26.0,-100.00,WNW,293,6.0,11.0,31,0.00,,,-99.99,474.000000,,2013-04-25 17:31:00,
2013-04-25 10:53:00,59.0,28.0,-100.00,NW,306,6.0,14.0,30,0.00,,,0.00,635.000000,,2013-04-25 17:53:00,
2013-04-25 11:01:00,59.0,28.0,-100.00,NW,306,6.0,14.0,30,0.00,,,0.00,635.000000,,2013-04-25 18:01:00,
2013-04-25 11:11:00,59.0,28.0,-100.00,NW,306,6.0,14.0,30,0.00,,,0.00,635.000000,,2013-04-25 18:11:00,
2013-04-25 11:21:00,59.0,28.0,-100.00,NW,306,6.0,14.0,30,0.00,,,0.00,635.000000,,2013-04-25 18:21:00,
2013-04-25 11:31:00,59.0,28.0,-100.00,NW,306,6.0,14.0,30,0.00,,,0.00,635.000000,,2013-04-25 18:31:00,
2013-04-25 11:53:00,62.0,29.0,-100.00,SW,234,5.0,10.0,29,0.00,,,0.00,804.000000,,2013-04-25 18:53:00,
2013-04-25 12:01:00,62.0,29.0,-100.00,SW,234,5.0,10.0,29,0.00,,,0.00,804.000000,,2013-04-25 19:01:00,
2013-04-25 12:12:00,62.0,29.0,-100.00,SW,234,5.0,10.0,29,0.00,,,0.00,804.000000,,2013-04-25 19:12:00,
2013-04-25 12:21:00,62.0,29.0,-100.00,SW,234,5.0,10.0,29,0.00,,,0.00,804.000000,,2013-04-25 19:21:00,
2013-04-25 12:31:00,62.0,29.0,-100.00,SW,234,5.0,10.0,29,0.00,,,0.00,804.000000,,2013-04-25 19:31:00,
2013-04-25 12:52:00,63.0,31.0,-100.00,South,188,5.0,12.0,30,0.00,,,0.00,869.000000,,2013-04-25 19:52:00,
2013-04-25 13:01:00,63.0,31.0,-100.00,South,188,5.0,12.0,30,0.00,,,0.00,869.000000,,2013-04-25 20:01:00,
2013-04-25 13:11:00,63.0,31.0,-100.00,South,188,5.0,12.0,30,0.00,,,0.00,869.000000,,2013-04-25 20:11:00,
2013-04-25 13:22:00,63.0,31.0,-100.00,South,188,5.0,12.0,30,0.00,,,0.00,869.000000,,2013-04-25 20:22:00,
2013-04-25 13:32:00,63.0,31.0,-100.00,South,188,5.0,12.0,30,0.00,,,0.00,869.000000,,2013-04-25 20:32:00,
2013-04-25 13:52:00,66.0,32.0,-100.00,West,259,6.0,17.0,28,0.00,,,0.00,853.000000,,2013-04-25 20:52:00,
2013-04-25 14:01:00,66.0,32.0,-100.00,West,259,6.0,17.0,28,0.00,,,0.00,853.000000,,2013-04-25 21:01:00,
2013-04-25 14:11:00,66.0,32.0,-100.00,West,259,6.0,17.0,28,0.00,,,0.00,853.000000,,2013-04-25 21:11:00,
2013-04-25 14:21:00,66.0,32.0,-100.00,West,259,6.0,17.0,28,0.00,,,0.00,853.000000,,2013-04-25 21:21:00,
2013-04-25 14:33:00,66.0,32.0,-100.00,West,259,6.0,17.0,28,0.00,,,0.00,853.000000,,2013-04-25 21:33:00,
2013-04-25 14:53:00,65.0,33.0,-100.00,NNW,333,7.0,13.0,30,0.00,,,0.00,713.000000,,2013-04-25 21:53:00,
2013-04-25 15:02:00,65.0,33.0,-100.00,NNW,333,7.0,13.0,30,0.00,,,0.00,713.000000,,2013-04-25 22:02:00,
2013-04-25 15:12:00,65.0,33.0,-100.00,NNW,333,7.0,13.0,30,0.00,,,0.00,713.000000,,2013-04-25 22:12:00,
2013-04-25 15:22:00,65.0,33.0,-100.00,NNW,333,7.0,13.0,30,0.00,,,0.00,713.000000,,2013-04-25 22:22:00,
2013-04-25 15:32:00,65.0,33.0,-100.00,NNW,333,7.0,13.0,30,0.00,,,0.00,713.000000,,2013-04-25 22:32:00,
2013-04-25 15:53:00,67.0,33.0,-100.00,NW,307,7.0,13.0,28,0.00,,,0.00,773.000000,,2013-04-25 22:53:00,
2013-04-25 16:02:00,67.0,33.0,-100.00,NW,307,7.0,13.0,28,0.00,,,0.00,773.000000,,2013-04-25 23:02:00,
2013-04-25 16:12:00,67.0,33.0,-100.00,NW,307,7.0,13.0,28,0.00,,,0.00,773.000000,,2013-04-25 23:12:00,
2013-04-25 16:21:00,67.0,33.0,-100.00,NW,307,7.0,13.0,28,0.00,,,0.00,773.000000,,2013-04-25 23:21:00,
2013-04-25 16:32:00,67.0,33.0,-100.00,NW,307,7.0,13.0,28,0.00,,,0.00,773.000000,,2013-04-25 23:32:00,
2013-04-25 16:52:00,65.0,31.0,-100.00,NNW,329,8.0,19.0,28,0.00,,,-99.99,301.000000,,2013-04-25 23:52:00,
2013-04-25 17:01:00,65.0,31.0,-100.00,NNW,329,8.0,19.0,28,0.00,,,-99.99,301.000000,,2013-04-26 00:01:00,
2013-04-25 17:11:00,65.0,31.0,-100.00,NNW,329,8.0,19.0,28,0.00,,,-99.99,301.000000,,2013-04-26 00:11:00,
2013-04-25 17:21:00,65.0,31.0,-100.00,NNW,329,8.0,19.0,28,0.00,,,-99.99,301.000000,,2013-04-26 00:21:00,
2013-04-25 17:31:00,65.0,31.0,-100.00,NNW,329,8.0,19.0,28,0.00,,,-99.99,301.000000,,2013-04-26 00:31:00,
2013-04-25 17:52:00,64.0,30.0,-100.00,NW,312,10.0,22.0,28,0.00,,,0.00,236.000000,,2013-04-26 00:52:00,
2013-04-25 18:01:00,64.0,30.0,-100.00,NW,312,10.0,22.0,28,0.00,,,0.00,236.000000,,2013-04-26 01:01:00,
2013-04-25 18:11:00,64.0,30.0,-100.00,NW,312,10.0,22.0,28,0.00,,,0.00,236.000000,,2013-04-26 01:11:00,
2013-04-25 18:21:00,64.0,30.0,-100.00,NW,312,10.0,22.0,28,0.00,,,0.00,236.000000,,2013-04-26 01:21:00,
2013-04-25 18:31:00,64.0,30.0,-100.00,NW,312,10.0,22.0,28,0.00,,,0.00,236.000000,,2013-04-26 01:31:00,
2013-04-25 18:52:00,61.0,29.0,-100.00,NW,322,9.0,21.0,30,0.00,,,0.00,276.000000,,2013-04-26 01:52:00,
2013-04-25 19:01:00,61.0,29.0,-100.00,NW,322,9.0,21.0,30,0.00,,,0.00,276.000000,,2013-04-26 02:01:00,
2013-04-25 19:11:00,61.0,29.0,-100.00,NW,322,9.0,21.0,30,0.00,,,0.00,276.000000,,2013-04-26 02:11:00,
2013-04-25 19:21:00,61.0,29.0,-100.00,NW,322,9.0,21.0,30,0.00,,,0.00,276.000000,,2013-04-26 02:21:00,
2013-04-25 19:31:00,61.0,29.0,-100.00,NW,322,9.0,21.0,30,0.00,,,0.00,276.000000,,2013-04-26 02:31:00,
2013-04-25 19:52:00,56.0,29.0,-100.00,NNW,329,12.0,24.0,36,0.00,,,0.00,62.000000,,2013-04-26 02:52:00,
2013-04-25 20:01:00,56.0,29.0,-100.00,NNW,329,12.0,24.0,36,0.00,,,0.00,62.000000,,2013-04-26 03:01:00,
2013-04-25 20:11:00,56.0,29.0,-100.00,NNW,329,12.0,24.0,36,0.00,,,0.00,62.000000,,2013-04-26 03:11:00,
2013-04-25 20:21:00,56.0,29.0,-100.00,NNW,329,12.0,24.0,36,0.00,,,0.00,62.000000,,2013-04-26 03:21:00,
2013-04-25 20:32:00,56.0,29.0,-100.00,NNW,329,12.0,24.0,36,0.00,,,0.00,62.000000,,2013-04-26 03:32:00,
2013-04-25 20:53:00,53.0,31.0,-100.00,NNW,328,14.0,22.0,43,0.00,,,0.00,6.000000,,2013-04-26 03:53:00,
2013-04-25 21:02:00,53.0,31.0,-100.00,NNW,328,14.0,22.0,43,0.00,,,0.00,6.000000,,2013-04-26 04:02:00,
2013-04-25 21:12:00,53.0,31.0,-100.00,NNW,328,14.0,22.0,43,0.00,,,0.00,6.000000,,2013-04-26 04:12:00,
2013-04-25 21:22:00,53.0,31.0,-100.00,NNW,328,14.0,22.0,43,0.00,,,0.00,6.000000,,2013-04-26 04:22:00,
2013-04-25 21:32:00,53.0,31.0,-100.00,NNW,328,14.0,22.0,43,0.00,,,0.00,6.000000,,2013-04-26 04:32:00,
2013-04-25 21:53:00,52.0,32.0,-100.00,NNW,336,8.0,20.0,47,0.00,,,0.00,0.000000,,2013-04-26 04:53:00,
2013-04-25 22:02:00,52.0,32.0,-100.00,NNW,336,8.0,20.0,47,0.00,,,0.00,0.000000,,2013-04-26 05:02:00,
2013-04-25 22:12:00,52.0,32.0,-100.00,NNW,336,8.0,20.0,47,0.00,,,0.00,0.000000,,2013-04-26 05:12:00,
2013-04-25 22:22:00,52.0,32.0,-100.00,NNW,336,8.0,20.0,47,0.00,,,0.00,0.000000,,2013-04-26 05:22:00,
2013-04-25 22:32:00,52.0,32.0,-100.00,NNW,336,8.0,20.0,47,0.00,,,0.00,0.000000,,2013-04-26 05:32:00,
2013-04-25 22:52:00,51.0,34.0,-100.00,NW,319,10.0,16.0,51,0.00,,,0.00,0.000000,,2013-04-26 05:52:00,
2013-04-25 23:02:00,51.0,34.0,-100.00,NW,319,10.0,16.0,51,0.00,,,0.00,0.000000,,2013-04-26 06:02:00,
2013-04-25 23:11:00,51.0,34.0,-100.00,NW,319,10.0,16.0,51,0.00,,,0.00,0.000000,,2013-04-26 06:11:00,
2013-04-25 23:21:00,51.0,34.0,-100.00,NW,319,10.0,16.0,51,0.00,,,0.00,0.000000,,2013-04-26 06:21:00,
2013-04-25 23:32:00,51.0,34.0,-100.00,NW,319,10.0,16.0,51,0.00,,,0.00,0.000000,,2013-04-26 06:32:00,
2013-04-25 23:52:00,53.0,35.0,-100.00,NW,326,10.0,14.0,51,0.00,,,0.00,0.000000,,2013-04-26 06:52:00,